Home   Weather   Zhengzhou   Past weeks

Flag for China Past Weather in Zhengzhou, Henan, China — Yesterday and Last 2 Weeks

Now
61 °F

Light rain. Mostly cloudy.


Feels Like: 61 °F
Forecast: 60 / 77 °F
Wind: 17 mph from Northeast

Location: Zhengzhou Airport

Current Time: May 23, 2017 at 3:22:07 am

Latest Report: May 23, 2017 at 3:00 am


Visibility: 5 mi

Pressure: 29.95 "Hg

Humidity: 94%

Dew Point: 59 °F

Location of ZhengzhouLocation

Past Weather in Zhengzhou — Graph

°F

Zhengzhou Temperature Yesterday

Maximum temperature yesterday: 90 °F (at 1:00 pm)
Minimum temperature yesterday: 63 °F (at 11:00 pm)
Average temperature yesterday: 77 °F

High & Low Weather Summary for the Past Weeks

 TemperatureHumidityPressure
High95 °F (May 17, 2:00 pm)100% (May 9, 2:00 am)30.07 "Hg (May 9, 2:00 am)
Low52 °F (May 9, 2:00 am)11% (May 10, 2:00 pm)29.59 "Hg (May 13, 3:00 am)
Average75 °F50%29.82 "Hg
* Reported May 8 2:00 am — May 23 2:00 am, Zhengzhou. Weather by CustomWeather, © 2017

Note: Actual official high and low records may vary slightly from our data, if they occured in-between our weather recording intervals... More about our weather records

Advertising

Zhengzhou Weather History for the Previous 24 Hours

Scroll right to see more
 ConditionsComfort  
Time TempWeatherWind HumidityBarometerVisibility
2:00 am
Tue, May 23
61 °FLight rain. Mostly cloudy.17 mph94%29.95 "Hg5 mi
1:00 am63 °FLight rain. Mostly cloudy.15 mph94%29.95 "Hg5 mi
12:00 am63 °FLight rain. Mostly cloudy.20 mph88%29.95 "Hg5 mi
11:00 pm
Mon, May 22
63 °FRain. Mostly cloudy.20 mph94%29.95 "Hg5 mi
10:00 pm64 °FRain. Mostly cloudy.22 mph88%29.92 "Hg5 mi
9:00 pm64 °FRain. Mostly cloudy.22 mph94%29.89 "Hg4 mi
8:00 pm66 °FRain. Fog.24 mph94%29.83 "Hg2 mi
7:00 pm84 °FLight rain. Clear.6 mph45%29.74 "Hg4 mi
6:00 pm84 °FClear.3 mph40%29.71 "Hg4 mi
5:00 pm86 °FClear.3 mph35%29.68 "Hg4 mi
4:00 pm86 °FClear.6 mph35%29.68 "Hg4 mi
3:00 pm88 °FClear.6 mph35%29.71 "Hg4 mi
2:00 pm88 °FPassing clouds.6 mph33%29.74 "Hg4 mi
1:00 pm90 °FPassing clouds.3 mph31%29.74 "Hg4 mi
12:00 pm88 °FClear.3 mph33%29.77 "Hg4 mi
11:00 am86 °FClear.6 mph38%29.77 "Hg4 mi
10:00 am81 °FHaze.3 mph54%29.80 "Hg3 mi
9:00 am79 °FHaze.3 mph65%29.80 "Hg3 mi
8:00 am75 °FHaze.3 mph69%29.80 "Hg3 mi
7:00 am73 °FHaze.1 mph74%29.80 "Hg3 mi
6:00 am68 °FFog.1 mph83%29.80 "Hg3 mi
5:00 am70 °FClear.1 mph78%29.77 "Hg4 mi
4:00 am72 °FClear.1 mph69%29.77 "Hg4 mi
3:00 am73 °FClear.1 mph65%29.77 "Hg4 mi
Weather by CustomWeather, © 2017

See weather overviewHow to use our weather pages